Weather History for Cancun, Mexico

Change the Weather History Date:

Thursday, July 18, 2013

  Actual Average Record
Temperature  
Mean Temperature 81 °F -  
Max Temperature 87 °F 90 °F 96 °F (2000)
Min Temperature 75 °F 73 °F 71 °F (1999)
Cooling Degree Days 16    
Growing Degree Days 31 (Base 50)    
Moisture  
Dew Point 76 °F    
Average Humidity 84    
Maximum Humidity 100    
Minimum Humidity 70    
Precipitation  
Precipitation 0.00 in - - ()
Sea Level Pressure  
Sea Level Pressure 30.00 in    
Wind  
Wind Speed 5 mph ()    
Max Wind Speed 18 mph    
Max Gust Speed -    
Visibility 6.7 miles    
Events Rain    
Averages and records for this station are not official NWS values.
T = Trace of Precipitation, MM = Missing Value Source: Averaged Metar Reports

Daily Weather History Graph

Daily Weather History Graph

Search for Another Location

Airport:

Trip Planner

Search our weather history database for the weather conditions in past years. The results will help you decide how hot, cold, wet, or windy it might be!

Date:

Astronomy

Jul. 18, 2013 Rise Set
Actual Time 6:16 AM CDT 7:31 PM CDT
Civil Twilight 5:51 AM CDT 7:55 PM CDT
Nautical Twilight 5:22 AM CDT 8:24 PM CDT
Astronomical Twilight 4:53 AM CDT 8:53 PM CDT
Moon 3:31 PM CDT (7/18) 1:59 AM CDT (7/18)
Length of Visible Light 14h 03m
Length of Day
13h 15m
Waxing Gibbous, 77% of the Moon is Illuminated
Jul 18
Waxing Gibbous
Jul 22
Full
Jul 29
Last Quarter
Aug 6
New
Aug 14
First Quarter

Hourly Weather History & Observations

Time (CDT) Temp. Heat Index Dew Point Humidity Pressure Visibility Wind Dir Wind Speed Gust Speed Precip Events Conditions
12:40 AM 80.6 °F 86.2 °F 75.2 °F 84% 30.00 in 6.0 mi SSE 5.8 mph - N/A   Mostly Cloudy
1:40 AM 78.8 °F - 75.2 °F 89% 29.98 in 6.0 mi SSE 5.8 mph - N/A   Mostly Cloudy
2:40 AM 77.0 °F - 75.2 °F 94% 29.98 in 6.0 mi SSE 2.3 mph - N/A   Scattered Clouds
3:41 AM 75.2 °F - 73.4 °F 94% 29.97 in 6.0 mi NW 2.3 mph - N/A   Scattered Clouds
4:40 AM 75.2 °F - 75.2 °F 100% 29.98 in 6.0 mi NW 3.5 mph - N/A   Scattered Clouds
5:44 AM 75.2 °F - 73.4 °F 94% 29.99 in 6.0 mi Calm Calm - N/A   Mostly Cloudy
6:40 AM 75.2 °F - 73.4 °F 94% 29.99 in 6.0 mi Calm Calm - N/A   Mostly Cloudy
7:41 AM 77.0 °F - 75.2 °F 94% 30.02 in 7.0 mi NW 2.3 mph - N/A   Mostly Cloudy
8:47 AM 84.2 °F 92.3 °F 75.2 °F 74% 30.04 in 7.0 mi ESE 8.1 mph - N/A   Mostly Cloudy
9:43 AM 84.2 °F 94.1 °F 77.0 °F 79% 30.04 in 7.0 mi SE 5.8 mph - N/A   Mostly Cloudy
10:41 AM 86.0 °F 96.9 °F 77.0 °F 74% 30.04 in 7.0 mi ESE 8.1 mph - N/A   Mostly Cloudy
11:51 AM 86.0 °F 95.1 °F 75.2 °F 70% 30.04 in 7.0 mi East 8.1 mph - N/A   Mostly Cloudy
12:44 PM 86.0 °F 95.1 °F 75.2 °F 70% 30.04 in 7.0 mi SE 12.7 mph - N/A   Mostly Cloudy
1:40 PM 87.8 °F 99.7 °F 77.0 °F 70% 30.01 in 7.0 mi ESE 11.5 mph - N/A   Mostly Cloudy
1:56 PM 84.2 °F 94.1 °F 77.0 °F 79% 30.01 in 5.0 mi SE 18.4 mph - N/A Rain Light Rain
2:16 PM 80.6 °F 85.4 °F 73.4 °F 79% - 7.0 mi SE 6.9 mph - N/A   Mostly Cloudy
2:42 PM 82.4 °F 90.9 °F 77.0 °F 84% 29.98 in 7.0 mi SE 8.1 mph - N/A   Mostly Cloudy
3:48 PM 84.2 °F 94.1 °F 77.0 °F 79% 29.98 in 7.0 mi ESE 6.9 mph - N/A   Mostly Cloudy
4:42 PM 82.4 °F 89.5 °F 75.2 °F 79% 29.99 in 7.0 mi ESE 6.9 mph - N/A   Mostly Cloudy
5:42 PM 82.4 °F 88.2 °F 73.4 °F 74% 29.98 in 7.0 mi ESE 5.8 mph - N/A   Overcast
6:45 PM 82.4 °F 90.9 °F 77.0 °F 84% 29.98 in 7.0 mi ESE 6.9 mph - N/A   Overcast
7:40 PM 80.6 °F 87.1 °F 77.0 °F 89% 30.00 in 7.0 mi East 2.3 mph - N/A   Overcast
8:41 PM 82.4 °F 92.4 °F 78.8 °F 89% 30.01 in 7.0 mi East 4.6 mph - N/A   Overcast
9:48 PM 80.6 °F 88.1 °F 78.8 °F 94% 29.98 in 7.0 mi East 5.8 mph - N/A   Overcast
10:47 PM 80.6 °F 88.1 °F 78.8 °F 94% 30.03 in 7.0 mi East 5.8 mph - N/A   Overcast
11:46 PM 80.6 °F 87.1 °F 77.0 °F 89% 30.03 in 7.0 mi ESE 5.8 mph - N/A   Overcast